Weather History for KTVR - November, 2014

Change the Weather History Date:

Tuesday, November 18, 2014

  Actual Average Record
Temperature  
Mean Temperature 34 °F 55 °F  
Max Temperature 43 °F 67 °F 87 °F (1958)
Min Temperature 25 °F 43 °F 17 °F (1951)
Degree Days  
Heating Degree Days 31 11  
Month to date heating degree days 299 150  
Since 1 July heating degree days 382 252  
Cooling Degree Days 0 0  
Month to date cooling degree days 4 12  
Year to date cooling degree days 2186 2221  
Moisture  
Dew Point 19 °F    
Average Humidity 59    
Maximum Humidity 85    
Minimum Humidity 33    
Precipitation  
Precipitation 0.00 in 0.17 in 5.75 in (1948)
Month to date precipitation 3.60 2.69  
Year to date precipitation 53.70 46.82  
Sea Level Pressure  
Sea Level Pressure 30.50 in    
Wind  
Wind Speed 4 mph (North)    
Max Wind Speed 13 mph    
Max Gust Speed 17 mph    
Visibility 10 miles    
Events      
T = Trace of Precipitation, MM = Missing Value Source: NWS Daily Summary

Daily Weather History Graph

Daily Weather History Graph

Search for Another Location

Airport or City:

Trip Planner

Search our weather history database for the weather conditions in past years. The results will help you decide how hot, cold, wet, or windy it might be!

Date:

Astronomy

Nov. 18, 2014 Rise Set
Actual Time 6:36 AM CST 5:02 PM CST
Civil Twilight 6:09 AM CST 5:28 PM CST
Nautical Twilight 5:40 AM CST 5:58 PM CST
Astronomical Twilight 5:10 AM CST 6:27 PM CST
Moon 2:48 AM CST (11/18) 2:45 PM CST (11/18)
Length of Visible Light 11h 18m
Length of Day
10h 25m
Waning Crescent, 15% of the Moon is Illuminated
Nov 18
Waning Crescent
Nov 22
New
Nov 29
First Quarter
Dec 6
Full
Dec 14
Last Quarter

Hourly Weather History & Observations

Time (CST) Temp. Windchill Dew Point Humidity Pressure Visibility Wind Dir Wind Speed Gust Speed Precip Events Conditions
12:53 AM 32.0 °F 24.8 °F 19.0 °F 59% 30.44 in 10.0 mi NNW 8.1 mph - N/A   Clear
1:53 AM 32.0 °F 24.2 °F 18.0 °F 56% 30.45 in 10.0 mi NNW 9.2 mph - N/A   Clear
2:53 AM 30.0 °F 23.2 °F 18.0 °F 61% 30.47 in 10.0 mi NNW 6.9 mph - N/A   Clear
3:53 AM 28.9 °F 23.9 °F 18.0 °F 64% 30.49 in 10.0 mi NNW 4.6 mph - N/A   Clear
4:53 AM 30.0 °F 20.5 °F 17.1 °F 59% 30.51 in 10.0 mi NNE 11.5 mph - N/A   Clear
5:53 AM 28.9 °F 20.4 °F 15.1 °F 56% 30.53 in 10.0 mi North 9.2 mph - N/A   Clear
6:53 AM 28.0 °F 22.8 °F 16.0 °F 61% 30.55 in 10.0 mi NNE 4.6 mph - N/A   Clear
7:53 AM 30.0 °F 24.1 °F 16.0 °F 56% 30.55 in 10.0 mi NE 5.8 mph - N/A   Clear
8:53 AM 32.0 °F 27.5 °F 12.9 °F 45% 30.57 in 10.0 mi ENE 4.6 mph - N/A   Clear
9:53 AM 36.0 °F 30.3 °F 12.0 °F 37% 30.58 in 10.0 mi NE 6.9 mph - N/A   Clear
10:53 AM 37.9 °F - 12.9 °F 36% 30.57 in 10.0 mi North - - N/A   Clear
11:53 AM 39.0 °F 34.0 °F 12.9 °F 34% 30.55 in 10.0 mi North 6.9 mph - N/A   Clear
12:53 PM 39.9 °F - 12.9 °F 33% 30.51 in 10.0 mi Calm Calm - N/A   Clear
1:53 PM 41.0 °F - 16.0 °F 36% 30.49 in 10.0 mi Calm Calm - N/A   Clear
2:53 PM 43.0 °F - 18.0 °F 37% 30.48 in 10.0 mi Calm Calm - N/A   Clear
3:53 PM 41.0 °F 37.1 °F 19.9 °F 43% 30.47 in 10.0 mi WNW 5.8 mph - N/A   Clear
4:53 PM 37.0 °F - 19.9 °F 50% 30.47 in 10.0 mi Calm Calm - N/A   Clear
5:53 PM 32.0 °F - 21.9 °F 66% 30.46 in 10.0 mi Calm Calm - N/A   Clear
6:53 PM 28.0 °F - 25.0 °F 88% 30.47 in 10.0 mi Calm Calm - N/A   Clear
7:53 PM 27.0 °F - 21.9 °F 81% 30.46 in 10.0 mi Calm Calm - N/A   Clear
8:53 PM 30.9 °F 26.2 °F 26.1 °F 82% 30.46 in 10.0 mi South 4.6 mph - N/A   Clear
9:53 PM 30.0 °F 25.2 °F 26.1 °F 85% 30.47 in 10.0 mi SSW 4.6 mph - N/A   Clear
10:53 PM 30.0 °F - 25.0 °F 82% 30.48 in 10.0 mi Calm Calm - N/A   Clear
11:53 PM 27.0 °F 23.0 °F 24.1 °F 89% 30.47 in 10.0 mi South 3.5 mph - N/A   Clear